Temperature
16 16 16 17 13 10 12 12 12 13 13 14 14 14 13 13 14 14 13 14 14 14 14 14 14 14 14 14 14 15 15 15 15 15 15 15 15 15 15 15 15 14 14 14 14 14 14 14 14
16 16 16 15 10 11 12 12 12 13 13 14 14 14 13 13 13 13 13 14 14 14 14 14 14 14 14 14 14 14 14 14 14 14 14 14 14 14 14 14 14 14 14 14 14 14 14 14 14
15 16 16 9 9 10 13 12 12 13 14 14 13 13 13 13 13 13 13 13 13 13 13 13 13 13 14 14 14 14 14 14 14 14 14 14 14 14 14 14 14 14 14 14 14 14 14 14 14
15 16 14 9 11 11 11 12 11 12 13 13 13 12 13 13 13 13 13 13 13 13 13 13 13 13 13 13 13 14 14 14 14 14 14 14 14 14 14 14 14 14 14 14 14 14 14 14 14
15 14 9 9 11 11 11 11 12 11 11 12 12 12 12 13 13 13 13 13 13 13 13 13 13 13 13 13 13 13 13 13 13 14 13 14 14 14 14 14 14 14 13 14 13 13 13 13 13
15 10 9 9 11 11 11 11 12 11 11 12 12 11 12 12 12 12 12 12 12 12 13 13 13 13 13 13 13 13 13 13 13 13 13 13 14 14 13 13 13 13 13 13 13 13 13 13 13
12 8 9 10 10 10 11 11 11 10 11 11 12 11 12 12 12 12 12 12 12 12 12 12 12 12 12 12 13 13 13 13 13 13 13 13 13 13 13 13 13 13 13 13 13 13 13 13 13
13 8 9 9 10 10 11 11 11 11 11 12 12 11 11 11 12 12 12 12 12 12 12 12 12 12 12 12 12 12 12 12 12 13 13 13 13 13 13 13 13 13 13 13 13 13 13 13 13
13 8 8 9 10 10 10 10 11 11 11 11 11 11 11 11 11 11 11 11 11 11 11 11 11 12 12 12 12 12 12 12 12 12 13 13 13 13 13 13 13 13 12 12 12 12 12 12 12
11 8 10 10 10 10 10 10 10 10 10 10 11 11 11 11 11 11 11 11 11 11 11 11 11 11 11 12 12 12 12 12 12 12 12 12 12 12 12 12 12 12 12 12 12 12 12 12 12
10 8 9 10 10 10 10 10 10 10 9 10 10 11 11 11 11 11 11 11 11 11 11 11 11 11 11 11 11 11 11 11 12 12 12 12 12 12 12 12 12 12 12 12 12 12 12 11 11
9 9 10 10 10 10 10 10 10 9 10 11 10 10 11 11 10 10 10 10 10 11 11 11 11 11 11 11 11 11 11 11 11 11 11 11 11 12 11 11 12 11 11 11 11 12 11 11 11
9 9 10 10 10 10 10 9 9 9 10 10 10 10 11 10 10 10 10 10 10 10 10 10 10 10 10 10 10 11 11 11 11 11 11 11 11 11 11 11 11 11 11 11 11 11 11 11 11
9 9 9 10 10 10 9 9 9 9 10 10 10 10 10 10 10 10 10 10 10 10 10 10 10 10 10 10 10 10 10 10 10 10 10 10 10 11 11 11 11 11 11 11 11 11 11 11 10
9 8 8 9 9 9 9 8 8 10 10 10 10 10 10 10 10 10 10 10 10 10 10 10 10 10 10 10 10 10 10 10 10 10 10 10 10 10 10 10 10 10 10 10 10 10 10 10 10
8 8 8 9 9 9 9 8 8 10 9 9 9 10 10 10 9 9 9 9 9 9 9 9 9 9 9 9 10 9 9 9 9 9 9 9 9 9 10 10 10 10 10 10 10 10 10 10 10
7 7 8 8 9 8 8 8 8 9 9 8 9 9 9 9 9 9 9 9 9 9 9 9 9 9 9 9 9 9 9 9 9 9 9 9 9 9 9 9 9 9 9 9 9 9 9 9 9
8 7 8 8 8 8 7 7 7 8 8 8 8 9 9 9 9 9 9 9 9 9 9 9 9 9 9 9 9 9 9 9 8 8 8 8 9 9 9 9 9 9 9 9 9 9 9 9 9
8 8 7 7 8 7 7 7 7 8 7 7 8 8 8 9 9 9 9 9 9 9 9 9 9 9 9 8 8 8 8 8 8 8 8 8 8 8 8 8 8 8 9 8 8 8 8 8 8
8 7 7 7 7 7 6 6 7 7 7 8 8 8 8 8 9 8 8 8 8 8 8 8 8 8 8 8 8 8 8 8 8 8 8 8 8 8 8 8 8 8 8 8 8 8 8 8 8
7 7 7 7 7 7 6 7 7 7 7 8 8 8 8 8 8 8 8 8 8 8 8 8 8 8 8 8 8 7 7 7 7 7 8 7 7 7 7 7 7 8 8 7 7 8 8 8 7
7 7 7 7 6 5 6 6 6 6 6 7 7 8 8 8 8 8 8 8 8 8 8 8 8 8 8 7 7 7 7 7 7 7 7 7 7 7 7 7 7 7 7 7 7 7 7 7 7
7 7 7 7 6 5 5 5 6 6 6 7 7 8 8 8 8 8 8 7 7 7 7 7 7 7 7 7 7 7 7 7 7 7 7 7 7 7 7 7 7 7 7 7 7 7 7 7 7
7 6 6 5 5 6 6 5 6 5 6 7 7 8 8 8 8 8 7 7 7 7 7 7 7 7 7 7 7 7 6 7 6 6 6 6 6 6 6 6 6 6 6 7 7 7 7 6 6
7 6 6 6 5 6 5 5 6 6 6 6 7 7 8 7 7 7 7 7 7 7 7 7 7 7 6 6 6 6 6 6 6 6 6 6 6 6 6 6 6 6 6 6 6 6 6 6 6
6 7 7 7 6 5 5 5 6 6 6 7 7 7 7 7 7 7 7 7 7 7 7 6 6 6 6 6 6 6 6 6 6 6 6 6 6 6 6 6 6 6 6 6 6 6 6 6 6
6 5 6 5 5 5 5 5 5 6 6 6 6 6 7 7 7 7 7 7 7 7 7 6 6 6 6 6 6 6 5 6 6 6 6 6 6 6 5 5 5 5 5 6 5 6 6 5 5
6 5 4 5 7 6 6 5 6 7 6 6 5 6 7 7 7 7 7 6 6 6 6 6 6 5 5 5 5 5 5 5 5 5 5 5 5 5 5 5 5 5 5 5 5 5 5 5 5
5 5 5 4 5 6 6 7 6 6 6 5 5 6 7 7 7 7 6 6 6 6 6 6 6 5 5 5 5 5 5 5 5 5 5 5 5 5 5 5 5 5 5 5 5 5 5 5 5
5 5 4 5 5 4 4 6 7 6 5 5 6 7 7 7 7 7 6 6 6 6 6 6 6 5 5 5 5 5 5 5 5 5 5 5 5 5 4 4 4 4 4 4 4 4 4 4 4
Wind_Speed
10 6 3 5 6 6 1 2 1 2 3 2 2 1 3 2 1 1 2 3 3 2 2 2 3 4 5 5 5 5 5 6 7 8 9 8 8 8 8 8 8 8 9 9 9 10 11 11 11
4 3 6 6 5 3 2 2 2 2 2 3 3 3 3 2 2 2 3 5 3 2 1 1 2 4 5 5 5 5 5 6 7 7 8 7 7 7 7 7 8 8 8 8 9 10 10 11 10
3 6 5 5 4 4 2 1 2 4 3 3 3 3 2 1 2 2 3 4 2 2 2 1 1 3 4 5 4 4 5 6 6 6 7 7 7 6 6 7 7 8 8 8 9 9 10 10 9
4 6 6 6 3 2 1 2 2 3 4 5 3 3 2 1 2 2 3 2 2 3 3 2 1 2 3 4 4 4 4 5 5 5 5 6 6 6 6 7 7 7 7 8 8 9 10 9 9
5 5 6 4 0 1 1 3 2 2 3 4 3 1 2 3 3 2 2 2 2 3 4 2 2 1 2 3 3 4 4 4 5 5 5 5 6 6 6 7 7 7 7 7 8 8 9 9 9
5 5 5 2 1 2 2 3 1 3 3 3 3 2 3 3 3 3 2 2 2 2 3 2 1 1 1 2 3 3 4 4 4 5 4 5 6 6 6 7 7 7 7 7 8 8 9 9 9
5 5 4 4 1 1 2 2 2 1 2 3 1 1 4 4 3 3 2 2 2 3 3 3 1 0 0 1 3 4 4 3 4 5 5 4 5 7 6 6 7 7 7 8 8 8 8 8 8
5 5 4 2 2 2 2 2 1 0 2 3 0 1 3 4 3 3 3 3 3 3 3 3 2 1 0 0 2 3 3 3 4 5 5 4 5 6 6 6 6 7 8 8 8 8 8 8 8
4 5 2 3 4 2 1 2 3 1 1 3 1 2 4 3 2 3 3 3 3 3 4 4 3 2 1 1 2 2 3 3 3 5 5 5 4 5 5 5 7 7 8 7 8 8 8 8 8
5 4 4 3 4 2 1 1 2 3 3 3 4 4 4 2 1 1 2 3 3 4 4 3 3 2 1 0 1 1 2 3 3 4 4 5 5 5 5 5 6 7 7 7 7 7 7 7 7
4 4 2 1 2 1 1 2 1 0 3 4 5 5 4 2 2 3 3 4 4 3 3 3 2 2 2 1 1 2 1 3 3 4 4 4 5 5 5 5 5 6 6 6 6 7 7 7 6
3 1 2 1 1 0 2 1 1 3 6 5 4 3 3 3 4 5 5 4 4 3 4 3 2 1 1 1 1 2 2 2 2 3 4 4 3 3 4 4 4 5 5 6 6 6 7 7 6
2 0 1 1 1 2 2 2 3 5 6 4 3 3 3 4 5 5 4 4 4 4 4 4 2 1 1 1 0 1 1 1 1 2 3 4 2 2 3 3 4 5 6 5 5 5 5 5 5
1 0 2 2 2 1 1 3 1 6 3 3 2 3 4 4 5 4 4 4 5 5 5 4 2 1 0 1 0 1 1 1 1 2 1 3 3 2 3 3 3 4 5 6 5 5 5 4 4
2 2 4 2 1 1 1 4 4 5 2 3 4 4 5 5 4 5 5 5 5 5 4 3 2 1 0 1 1 1 1 2 1 1 2 2 3 3 4 3 3 4 6 7 6 5 5 4 4
3 3 3 3 1 1 2 5 5 2 1 3 5 5 5 5 5 5 5 4 4 4 4 3 2 1 1 1 1 2 2 1 1 1 2 2 3 3 3 3 3 4 6 5 4 3 3 3 3
3 1 3 5 1 0 2 6 6 2 2 4 5 6 5 6 7 6 5 4 4 4 3 3 2 2 1 1 1 2 2 2 1 1 1 2 3 4 3 3 3 6 5 4 4 2 3 3 3
3 3 4 5 3 1 4 8 8 4 3 5 6 6 5 6 7 7 5 4 3 3 2 2 2 2 1 1 1 1 2 1 2 1 1 1 3 4 4 3 3 5 4 3 3 3 3 3 3
3 3 5 6 3 2 6 10 11 6 4 5 6 5 6 7 6 5 4 3 3 3 2 2 2 2 2 1 1 1 1 1 1 1 1 1 2 4 4 3 3 3 3 3 4 3 4 2 2
3 3 4 5 2 2 6 10 9 6 5 5 6 6 6 6 6 6 5 3 2 2 2 2 2 2 3 2 2 1 1 0 1 1 1 1 2 3 4 3 2 2 3 4 3 4 2 1 1
3 4 4 4 4 3 4 8 6 5 4 4 5 5 4 5 5 6 5 4 3 2 2 2 2 2 3 2 2 2 2 2 1 1 1 1 2 3 4 4 3 3 3 3 3 4 3 2 0
4 4 4 2 1 4 1 5 7 5 5 5 5 5 5 5 4 4 5 4 3 3 2 1 1 2 2 3 4 4 2 1 1 1 1 1 1 2 4 4 4 3 3 3 3 2 2 3 2
4 1 1 1 2 3 1 3 8 3 5 7 6 6 5 4 4 4 4 4 3 2 1 1 0 1 2 2 4 4 2 1 1 1 1 1 1 2 3 3 3 3 2 3 3 2 3 3 3
3 3 4 4 3 3 4 4 7 5 6 5 5 5 5 4 4 4 4 3 3 2 1 1 1 1 2 2 2 3 3 3 3 2 2 1 1 1 2 3 3 3 3 3 3 3 3 3 2
3 4 3 4 2 6 2 4 9 7 6 6 6 6 4 3 2 3 4 4 3 2 1 1 1 1 1 2 2 2 3 3 4 3 3 2 2 1 2 2 3 3 4 4 3 3 3 3 3
3 5 5 4 5 5 2 6 8 6 4 4 4 4 3 2 3 3 4 3 3 2 1 1 1 1 1 2 2 2 2 2 2 2 2 3 3 2 2 2 2 2 3 4 4 3 3 3 3
5 3 3 4 1 4 6 7 8 3 3 3 3 3 3 3 4 4 4 3 3 2 2 2 2 2 2 2 2 2 2 2 2 2 2 2 2 2 3 2 2 2 3 3 3 2 2 3 3
4 6 4 3 3 5 6 6 5 5 5 5 4 5 5 4 4 4 3 3 2 2 2 1 2 3 3 2 2 2 2 3 3 3 2 2 2 2 3 2 2 2 2 2 3 2 2 2 2
4 3 4 3 3 4 5 7 6 7 6 6 6 5 5 5 4 4 3 2 2 2 1 1 1 2 2 2 2 2 2 2 2 2 3 2 2 2 3 3 2 2 2 2 3 2 3 3 2
6 6 6 4 5 4 4 8 4 5 5 4 6 6 5 4 4 3 3 2 2 2 2 1 1 2 2 2 2 2 2 2 1 1 2 2 2 2 2 2 2 2 2 2 3 3 3 4 4
Wind_Direction
347 10 58 54 57 55 93 279 279 327 330 324 314 95 121 125 142 238 304 339 347 320 288 224 175 139 129 125 120 117 125 125 128 124 121 121 122 123 125 124 123 121 118 117 114 112 108 104 99
353 30 52 58 86 89 278 281 285 285 287 323 18 63 64 43 15 345 327 325 337 336 322 264 172 144 132 127 128 120 127 125 123 126 127 125 124 121 121 124 128 123 117 114 113 111 108 105 102
42 49 74 71 100 157 191 277 263 303 334 21 21 38 65 3 341 307 296 305 341 4 359 346 147 155 146 135 130 134 126 131 126 129 133 131 129 125 121 118 120 120 117 114 113 112 108 106 105
62 46 57 73 106 196 214 295 295 334 360 19 36 25 2 7 298 279 302 343 31 8 9 8 50 150 155 147 140 137 132 138 140 135 140 142 138 134 131 121 119 123 122 120 117 114 112 107 107
56 72 67 61 100 277 303 314 331 23 360 354 27 26 317 331 334 341 357 25 33 7 6 12 25 83 140 152 151 147 136 131 146 147 146 153 146 142 140 131 125 128 132 130 125 120 115 110 110
55 66 87 134 224 304 326 325 26 30 354 354 24 347 294 322 356 341 348 7 10 9 359 359 6 36 127 165 169 165 149 140 146 155 156 158 153 147 145 140 136 133 133 133 129 124 116 112 113
95 90 125 149 170 316 332 339 76 21 348 318 314 332 300 313 320 331 337 351 357 2 0 348 328 339 101 181 177 171 154 153 159 156 158 154 154 154 144 139 140 136 133 131 128 124 119 118 118
107 99 100 134 163 250 312 351 338 52 282 302 79 152 276 285 314 348 352 356 351 356 354 350 345 344 342 203 153 157 151 152 159 150 140 135 138 144 143 137 140 140 137 135 131 125 122 121 119
80 77 137 188 181 233 315 3 328 319 303 323 313 239 261 277 346 3 350 339 337 341 342 349 348 350 341 143 143 146 148 151 150 136 123 111 107 112 121 131 140 145 144 138 131 125 118 113 112
71 118 189 193 178 192 258 246 293 343 336 317 314 314 319 325 322 311 304 297 307 314 322 331 336 341 1 14 110 94 122 132 131 124 124 118 110 107 109 111 121 129 132 131 125 119 112 102 95
87 148 179 197 187 183 234 270 274 168 283 255 264 291 309 295 290 273 276 274 276 287 305 313 320 342 12 25 74 74 96 125 126 125 124 119 108 108 106 100 100 104 109 104 104 96 94 96 97
89 130 169 205 171 195 220 245 280 223 246 259 251 259 271 268 266 262 266 276 283 289 292 299 318 342 9 28 62 89 93 99 94 114 121 115 104 106 105 96 105 105 108 102 98 97 97 96 100
81 287 318 280 303 249 239 243 244 271 274 293 286 280 268 257 264 265 261 271 287 285 285 287 299 320 4 44 30 92 105 101 115 121 131 130 119 135 121 110 109 114 117 112 106 101 101 98 95
126 25 315 309 298 287 231 278 244 274 295 322 311 284 272 270 276 277 285 278 277 275 278 280 282 284 34 101 130 95 90 93 114 114 137 146 139 146 141 130 122 119 124 122 115 115 111 105 102
68 30 349 310 283 276 25 316 249 264 342 326 303 290 290 284 284 278 264 261 263 270 275 273 265 303 55 153 124 79 66 75 74 97 127 133 134 149 142 138 134 127 125 116 105 100 105 105 96
53 42 336 298 289 301 106 277 270 269 300 297 294 293 294 296 290 285 274 272 273 274 273 271 269 253 206 160 117 96 76 70 61 104 121 122 119 126 127 135 139 132 124 116 115 107 108 105 101
41 17 272 294 273 216 181 256 273 275 258 277 282 285 289 299 306 307 293 283 278 269 262 259 251 233 206 163 108 100 103 87 65 71 104 125 125 124 122 127 137 134 124 123 131 116 117 121 108
221 224 256 265 277 239 247 259 273 276 250 262 273 281 290 295 292 303 301 299 290 282 271 260 236 223 179 129 103 84 90 96 89 72 58 133 138 132 123 116 124 132 127 124 122 122 99 120 120
167 198 254 264 272 263 254 264 270 269 258 266 274 280 289 289 289 307 316 313 312 313 304 280 238 203 159 154 151 147 170 156 135 89 87 98 129 128 123 123 121 125 130 138 131 123 106 93 105
174 225 260 282 295 257 277 274 266 250 238 239 253 267 278 296 316 327 329 322 311 303 295 274 235 197 181 179 179 150 132 125 136 66 78 125 125 120 128 128 139 133 127 127 125 123 118 97 108
223 209 231 257 326 335 316 297 266 263 244 253 257 261 272 283 299 311 320 312 313 306 291 276 241 200 185 159 129 102 80 64 56 78 103 81 122 123 121 127 134 135 136 155 150 143 141 153 134
250 228 215 240 325 297 16 297 281 271 287 274 272 277 281 285 292 298 307 308 302 287 293 291 229 181 174 162 155 151 149 161 226 211 185 138 123 126 119 124 131 141 143 159 168 150 144 153 164
216 198 187 211 184 298 259 237 284 295 274 269 266 270 280 284 285 292 297 286 287 290 294 282 175 167 160 159 164 161 151 149 142 139 137 135 126 132 129 130 134 150 161 168 167 154 154 161 167
148 67 54 54 80 282 229 200 279 243 235 259 265 272 274 284 290 294 300 306 301 308 312 298 179 176 161 157 155 163 162 153 146 150 162 162 157 151 138 151 157 167 174 175 174 169 169 170 164
98 93 18 346 334 255 206 213 252 249 236 234 251 262 270 272 280 295 303 311 308 316 310 283 183 169 166 158 158 164 164 162 169 175 180 179 173 178 180 167 171 176 178 174 169 170 182 180 175
182 159 170 223 246 281 270 240 254 257 262 251 247 252 263 277 282 283 287 284 288 287 277 242 232 210 189 185 184 180 175 171 177 173 173 188 186 182 180 175 184 187 176 171 168 175 187 183 183
151 193 174 152 214 274 269 276 296 259 277 271 263 263 262 269 282 289 297 289 288 278 255 219 210 220 218 217 202 185 185 188 177 170 161 181 180 171 160 167 178 186 176 167 166 177 182 180 191
166 152 119 150 212 264 283 269 256 259 259 265 266 266 270 280 293 300 296 293 291 281 276 241 206 208 216 211 205 202 200 194 173 164 169 176 182 169 161 171 181 187 174 170 171 179 182 183 204
150 161 165 165 192 203 269 270 227 223 227 239 252 255 257 263 274 281 290 291 305 317 306 282 235 220 210 206 203 196 205 190 168 171 174 172 176 165 163 174 175 177 182 180 180 188 190 197 213
194 194 169 185 229 214 238 268 259 223 231 236 260 265 261 257 264 270 282 306 327 324 311 279 246 231 226 206 189 197 190 161 164 186 179 163 170 174 176 171 171 192 196 193 192 199 204 207 214
Height
1499 1499 1501 1503 1509 1525 1528 1525 1522 1521 1519 1519 1518 1518 1518 1520 1523 1526 1522 1519 1519 1519 1519 1520 1520 1521 1522 1522 1523 1523 1524 1525 1526 1526 1527 1528 1528 1529 1530 1531 1531 1532 1533 1534 1535 1535 1536 1537 1538
1499 1500 1503 1504 1519 1533 1530 1524 1523 1521 1520 1518 1518 1518 1518 1519 1520 1521 1519 1519 1519 1519 1519 1519 1520 1520 1521 1521 1522 1523 1523 1524 1525 1526 1526 1527 1528 1529 1530 1530 1531 1532 1533 1534 1535 1536 1536 1537 1538
1500 1501 1504 1511 1525 1531 1526 1522 1522 1520 1519 1518 1518 1519 1519 1520 1520 1520 1519 1519 1518 1519 1519 1519 1519 1520 1520 1521 1521 1522 1523 1523 1524 1525 1526 1527 1527 1528 1529 1530 1531 1532 1533 1534 1535 1536 1537 1537 1538
1502 1503 1507 1519 1525 1526 1524 1522 1521 1520 1519 1519 1519 1520 1520 1521 1521 1520 1519 1519 1518 1518 1518 1518 1518 1519 1519 1520 1520 1521 1521 1522 1523 1524 1525 1526 1527 1528 1528 1530 1531 1532 1533 1534 1535 1536 1537 1538 1539
1502 1504 1516 1527 1525 1524 1523 1522 1521 1521 1520 1520 1520 1520 1520 1521 1520 1519 1519 1518 1518 1517 1517 1517 1517 1518 1518 1518 1519 1520 1520 1521 1522 1523 1524 1525 1526 1527 1528 1529 1530 1531 1533 1534 1535 1536 1537 1538 1539
1504 1507 1525 1530 1526 1524 1522 1522 1521 1521 1521 1521 1520 1520 1520 1520 1519 1518 1518 1517 1517 1517 1517 1516 1516 1516 1516 1517 1517 1518 1519 1520 1520 1522 1522 1524 1525 1526 1527 1528 1529 1531 1532 1533 1534 1535 1537 1538 1539
1506 1515 1525 1526 1527 1524 1523 1521 1521 1521 1521 1521 1521 1521 1520 1519 1519 1518 1517 1517 1516 1516 1515 1515 1515 1515 1515 1515 1516 1517 1517 1518 1519 1520 1521 1522 1523 1524 1525 1527 1528 1530 1531 1532 1533 1535 1536 1537 1538
1507 1515 1524 1527 1526 1524 1522 1521 1522 1521 1521 1521 1521 1520 1519 1519 1518 1517 1516 1515 1515 1514 1514 1513 1513 1513 1513 1513 1514 1514 1515 1516 1517 1518 1519 1520 1521 1523 1524 1526 1527 1528 1530 1531 1533 1534 1535 1537 1538
1508 1520 1527 1525 1525 1523 1521 1521 1521 1521 1521 1520 1520 1520 1519 1518 1516 1515 1514 1513 1513 1512 1512 1511 1511 1511 1511 1511 1512 1512 1513 1514 1515 1516 1517 1518 1519 1521 1522 1524 1526 1527 1529 1530 1532 1533 1534 1536 1537
1510 1523 1522 1521 1521 1521 1521 1521 1521 1521 1520 1519 1519 1518 1517 1516 1515 1513 1512 1511 1510 1510 1510 1510 1509 1509 1509 1509 1509 1510 1511 1511 1513 1514 1515 1516 1517 1519 1520 1522 1524 1525 1527 1529 1530 1532 1533 1534 1536
1513 1519 1519 1519 1519 1520 1520 1520 1520 1520 1520 1518 1517 1516 1515 1514 1513 1512 1511 1510 1509 1508 1508 1507 1507 1507 1507 1507 1507 1508 1509 1509 1510 1511 1512 1514 1515 1517 1518 1520 1522 1524 1525 1527 1529 1530 1532 1533 1535
1516 1518 1518 1519 1519 1519 1519 1519 1519 1519 1518 1517 1516 1515 1513 1512 1511 1510 1509 1508 1508 1507 1506 1506 1505 1505 1504 1505 1505 1505 1506 1506 1508 1509 1510 1511 1513 1514 1516 1518 1520 1522 1524 1525 1527 1529 1530 1532 1534
1517 1518 1518 1518 1518 1518 1518 1518 1518 1516 1515 1515 1514 1513 1512 1510 1509 1508 1507 1507 1506 1505 1504 1504 1503 1503 1502 1502 1502 1503 1504 1505 1506 1507 1508 1509 1510 1512 1514 1516 1518 1520 1521 1523 1525 1527 1528 1530 1532
1517 1518 1518 1517 1517 1517 1517 1517 1517 1513 1513 1512 1512 1510 1510 1508 1507 1506 1505 1504 1503 1502 1502 1501 1501 1500 1500 1500 1500 1500 1502 1503 1504 1505 1506 1507 1508 1510 1511 1513 1516 1518 1520 1522 1524 1525 1527 1529 1531
1517 1519 1518 1517 1516 1517 1517 1517 1515 1512 1512 1511 1510 1509 1507 1506 1505 1504 1502 1501 1501 1500 1499 1498 1498 1498 1497 1497 1498 1498 1500 1501 1502 1503 1504 1505 1506 1508 1509 1511 1513 1516 1518 1520 1522 1524 1526 1527 1529
1519 1522 1523 1517 1516 1516 1520 1519 1512 1511 1510 1509 1508 1506 1505 1504 1503 1501 1500 1499 1498 1497 1496 1496 1496 1495 1495 1495 1495 1496 1498 1498 1500 1501 1502 1503 1504 1506 1507 1509 1511 1514 1516 1518 1520 1522 1524 1525 1527
1523 1526 1523 1519 1516 1516 1518 1516 1510 1509 1508 1507 1505 1504 1503 1501 1500 1499 1497 1496 1495 1494 1493 1493 1493 1492 1493 1493 1494 1495 1495 1497 1498 1499 1500 1501 1502 1504 1506 1507 1509 1512 1514 1516 1518 1520 1522 1523 1525
1522 1524 1523 1521 1516 1516 1517 1513 1508 1507 1506 1504 1503 1502 1501 1499 1497 1496 1494 1493 1492 1491 1491 1490 1490 1490 1490 1491 1492 1492 1493 1494 1495 1497 1498 1499 1500 1502 1504 1506 1507 1509 1512 1514 1516 1518 1520 1521 1523
1518 1521 1522 1519 1515 1516 1514 1511 1506 1504 1503 1502 1500 1499 1498 1496 1495 1494 1492 1490 1489 1489 1488 1487 1487 1487 1488 1488 1489 1489 1490 1491 1492 1494 1496 1497 1498 1499 1501 1503 1505 1507 1509 1511 1513 1515 1517 1519 1521
1519 1521 1520 1517 1515 1515 1513 1509 1502 1500 1500 1498 1497 1496 1495 1494 1492 1491 1490 1488 1487 1486 1485 1485 1484 1485 1485 1485 1486 1487 1488 1489 1490 1491 1492 1494 1496 1497 1499 1501 1503 1505 1507 1509 1511 1513 1514 1516 1518
1518 1519 1518 1517 1516 1515 1515 1508 1501 1497 1496 1495 1494 1493 1493 1492 1490 1489 1488 1486 1485 1484 1483 1482 1482 1482 1483 1483 1484 1485 1486 1487 1487 1488 1489 1491 1493 1495 1496 1499 1501 1503 1505 1507 1508 1511 1512 1514 1516
1516 1514 1515 1516 1519 1521 1518 1518 1501 1497 1495 1492 1491 1490 1489 1489 1488 1487 1486 1484 1483 1482 1482 1481 1481 1481 1481 1481 1482 1482 1483 1484 1485 1486 1487 1488 1490 1492 1494 1496 1499 1501 1503 1505 1507 1509 1510 1512 1513
1512 1512 1514 1515 1518 1521 1520 1521 1505 1498 1495 1490 1488 1487 1487 1486 1486 1485 1484 1483 1482 1481 1480 1480 1480 1479 1479 1480 1480 1480 1481 1482 1483 1484 1485 1486 1488 1490 1491 1494 1496 1498 1501 1503 1504 1506 1508 1510 1511
1511 1513 1516 1519 1521 1520 1516 1520 1507 1498 1491 1487 1485 1485 1485 1484 1484 1483 1482 1481 1480 1479 1479 1479 1478 1478 1478 1478 1478 1478 1479 1480 1481 1481 1482 1483 1485 1487 1489 1491 1494 1496 1498 1500 1501 1503 1505 1507 1509
1511 1517 1523 1521 1525 1517 1513 1515 1502 1488 1485 1484 1483 1483 1482 1482 1482 1481 1480 1479 1478 1477 1477 1477 1477 1476 1476 1476 1476 1477 1478 1478 1479 1479 1480 1481 1483 1485 1486 1489 1491 1493 1495 1497 1499 1501 1503 1504 1505
1512 1513 1519 1519 1520 1518 1514 1510 1493 1484 1482 1481 1481 1481 1480 1480 1480 1479 1478 1477 1476 1476 1476 1475 1475 1475 1475 1475 1475 1476 1476 1477 1478 1478 1479 1480 1480 1482 1484 1487 1489 1491 1492 1494 1496 1498 1499 1501 1502
1511 1514 1513 1520 1520 1520 1512 1504 1490 1481 1480 1480 1479 1479 1478 1478 1478 1477 1476 1475 1475 1474 1474 1473 1473 1473 1474 1474 1474 1474 1475 1475 1476 1477 1478 1478 1479 1480 1482 1484 1486 1488 1489 1491 1493 1494 1496 1497 1499
1507 1511 1518 1517 1514 1512 1505 1502 1493 1481 1479 1478 1478 1476 1476 1476 1476 1475 1474 1473 1473 1472 1472 1472 1472 1472 1472 1472 1473 1473 1473 1474 1475 1475 1476 1477 1477 1478 1480 1481 1483 1485 1486 1488 1489 1491 1492 1494 1495
1508 1510 1511 1516 1514 1512 1509 1495 1480 1477 1475 1476 1475 1474 1474 1474 1474 1473 1472 1472 1471 1471 1471 1470 1471 1471 1471 1471 1471 1472 1472 1472 1473 1474 1474 1475 1475 1476 1477 1479 1481 1482 1483 1485 1486 1487 1489 1490 1491
1502 1504 1508 1510 1510 1514 1511 1494 1473 1473 1472 1473 1473 1472 1473 1472 1472 1472 1471 1470 1470 1469 1469 1469 1469 1469 1469 1469 1470 1470 1470 1470 1471 1471 1472 1473 1473 1474 1475 1477 1478 1479 1480 1481 1482 1484 1485 1486 1487